Total_Precipitation_Accumulation
0.00 0.00 0.01 0.01 0.01 0.02 0.04 0.07 0.16 0.24 0.20 0.30 0.37 0.47 0.62 0.79 1.01 1.04 1.12 1.22 1.44 1.74 2.15 2.83 3.52 4.08 4.75 5.51 6.10 5.96 5.33 4.81 4.20 3.65 3.09 2.97 2.72 2.45 2.21 2.00 1.76 1.72 1.68 1.49
0.01 0.03 0.03 0.03 0.02 0.03 0.05 0.08 0.14 0.19 0.17 0.17 0.30 0.57 0.73 0.81 0.97 0.92 0.93 0.95 1.14 1.50 2.10 2.89 3.50 3.71 3.71 3.99 4.25 3.75 3.54 3.52 3.11 2.78 2.70 2.54 2.35 2.11 1.90 1.78 1.71 1.43 1.42 1.37
0.02 0.04 0.03 0.03 0.03 0.05 0.07 0.09 0.10 0.17 0.18 0.24 0.38 0.74 0.95 0.88 0.87 0.75 0.72 0.94 1.40 1.80 2.24 2.74 2.90 2.91 2.80 2.79 2.78 2.56 2.49 2.78 2.70 2.64 2.55 2.47 2.41 2.32 2.06 1.72 1.66 1.39 1.23 1.23
0.01 0.03 0.03 0.04 0.05 0.05 0.08 0.06 0.04 0.05 0.13 0.36 0.53 0.95 1.12 1.03 0.97 0.70 0.74 1.13 1.64 1.94 2.20 2.18 1.78 1.67 1.81 1.90 2.00 2.25 2.32 2.43 2.35 2.39 2.18 1.97 1.83 1.71 1.60 1.52 1.55 1.55 1.36 1.25
0.03 0.03 0.03 0.05 0.05 0.04 0.05 0.04 0.03 0.06 0.15 0.40 0.68 1.11 1.31 1.10 0.90 0.66 0.65 0.76 1.15 1.32 1.27 1.05 0.91 0.98 1.21 1.46 1.70 2.09 2.16 2.19 2.08 2.04 2.04 2.06 1.94 1.90 1.77 1.68 1.80 1.78 1.75 1.55
0.04 0.04 0.04 0.03 0.03 0.04 0.04 0.05 0.10 0.21 0.38 0.83 0.90 1.00 1.25 1.05 0.84 0.68 0.54 0.54 0.77 0.79 0.64 0.67 0.72 0.91 1.14 1.31 1.42 1.63 1.81 1.99 2.04 2.05 2.10 2.06 2.01 2.06 1.88 1.72 1.62 1.60 1.64 1.58
0.09 0.09 0.06 0.04 0.03 0.04 0.04 0.06 0.26 0.61 0.90 1.03 0.76 0.89 1.19 0.81 0.56 0.46 0.35 0.31 0.34 0.39 0.49 0.66 0.74 0.92 1.01 1.11 1.13 1.22 1.35 1.56 1.69 1.79 1.91 1.96 1.99 2.02 1.84 1.72 1.59 1.54 1.45 1.40
0.15 0.14 0.08 0.04 0.05 0.05 0.04 0.04 0.11 0.22 0.34 0.55 0.70 1.09 1.17 0.76 0.44 0.27 0.23 0.24 0.24 0.28 0.35 0.41 0.50 0.56 0.67 0.81 1.00 1.14 1.19 1.22 1.25 1.31 1.50 1.70 1.74 1.76 1.69 1.75 1.55 1.44 1.36 1.36
0.05 0.04 0.04 0.04 0.05 0.03 0.04 0.03 0.04 0.06 0.09 0.32 0.74 1.02 0.94 0.60 0.43 0.31 0.30 0.33 0.32 0.30 0.35 0.31 0.33 0.41 0.49 0.52 0.65 0.86 0.94 0.97 1.00 1.08 1.22 1.32 1.39 1.50 1.63 1.61 1.43 1.27 1.31 1.34
0.02 0.02 0.03 0.03 0.04 0.04 0.04 0.04 0.04 0.06 0.10 0.24 0.58 1.06 1.22 0.85 0.59 0.47 0.48 0.42 0.36 0.32 0.31 0.33 0.35 0.37 0.40 0.42 0.52 0.67 0.81 0.87 0.91 0.98 1.05 1.02 1.17 1.27 1.42 1.46 1.39 1.26 1.23 1.31
0.02 0.02 0.03 0.03 0.05 0.06 0.05 0.05 0.05 0.07 0.08 0.16 0.42 0.69 0.70 0.74 0.60 0.44 0.44 0.41 0.38 0.34 0.34 0.39 0.37 0.42 0.38 0.36 0.43 0.54 0.71 0.82 0.80 0.86 0.93 1.02 1.12 1.28 1.34 1.33 1.36 1.33 1.30 1.33
0.02 0.01 0.02 0.04 0.06 0.07 0.07 0.08 0.08 0.08 0.08 0.11 0.21 0.36 0.40 0.44 0.54 0.65 0.53 0.49 0.51 0.47 0.39 0.40 0.39 0.41 0.34 0.36 0.43 0.50 0.59 0.70 0.75 0.81 0.89 0.99 1.08 1.19 1.28 1.25 1.33 1.43 1.41 1.42
0.02 0.02 0.03 0.11 0.16 0.15 0.10 0.09 0.08 0.08 0.08 0.08 0.20 0.35 0.36 0.32 0.38 0.48 0.55 0.61 0.55 0.44 0.43 0.41 0.49 0.47 0.41 0.41 0.46 0.53 0.65 0.76 0.83 0.89 0.98 1.01 0.99 1.06 1.20 1.25 1.29 1.38 1.46 1.51
0.02 0.02 0.03 0.09 0.17 0.21 0.19 0.14 0.11 0.07 0.06 0.06 0.11 0.24 0.26 0.38 0.47 0.45 0.53 0.61 0.53 0.36 0.37 0.47 0.54 0.57 0.64 0.63 0.65 0.73 0.87 0.87 0.88 0.82 0.88 0.97 1.01 1.13 1.27 1.32 1.35 1.38 1.40 1.43
0.02 0.02 0.02 0.02 0.06 0.13 0.19 0.16 0.11 0.07 0.05 0.06 0.08 0.15 0.25 0.42 0.54 0.58 0.57 0.58 0.55 0.48 0.49 0.53 0.61 0.65 0.71 0.76 0.75 0.75 0.84 0.85 0.87 1.02 1.12 1.17 1.17 1.25 1.38 1.47 1.44 1.49 1.50 1.49
0.04 0.04 0.03 0.04 0.06 0.08 0.12 0.14 0.10 0.07 0.06 0.06 0.08 0.17 0.30 0.47 0.54 0.60 0.57 0.53 0.53 0.59 0.59 0.65 0.71 0.76 0.76 0.77 0.84 0.90 0.93 0.95 1.08 1.42 1.56 1.53 1.53 1.56 1.57 1.59 1.59 1.67 1.73 1.87
0.11 0.09 0.08 0.05 0.07 0.09 0.14 0.13 0.11 0.09 0.08 0.09 0.14 0.24 0.33 0.46 0.62 0.71 0.63 0.51 0.50 0.51 0.56 0.64 0.78 0.87 0.84 0.82 0.86 0.95 1.04 1.10 1.23 1.46 1.57 1.61 1.62 1.64 1.75 1.79 1.81 1.87 1.97 2.02
0.19 0.19 0.16 0.11 0.11 0.18 0.17 0.16 0.16 0.14 0.15 0.18 0.29 0.39 0.44 0.47 0.55 0.60 0.51 0.49 0.52 0.53 0.63 0.74 0.77 0.88 0.95 0.99 1.02 1.14 1.29 1.41 1.47 1.58 1.74 1.83 1.79 1.80 1.85 1.87 1.82 1.84 1.96 1.98
0.25 0.27 0.24 0.22 0.21 0.20 0.19 0.22 0.24 0.23 0.28 0.34 0.48 0.60 0.66 0.65 0.63 0.72 0.66 0.61 0.61 0.70 0.79 0.95 1.09 1.08 1.12 1.23 1.32 1.36 1.54 1.63 1.66 1.71 1.90 2.02 2.09 2.17 2.08 1.97 1.97 1.98 1.98 1.85
0.29 0.33 0.39 0.34 0.35 0.35 0.29 0.34 0.32 0.35 0.60 0.58 0.67 0.79 0.86 0.85 1.03 1.08 0.86 0.82 0.75 0.74 0.82 0.92 1.11 1.26 1.26 1.39 1.48 1.50 1.52 1.57 1.64 1.68 1.80 1.96 2.06 2.23 2.32 2.21 2.18 2.10 2.03 1.94
0.42 0.46 0.43 0.43 0.45 0.42 0.39 0.38 0.40 0.73 1.02 0.92 0.92 0.95 1.02 1.14 1.12 1.05 0.90 0.91 0.96 0.88 0.83 0.85 0.92 1.09 1.19 1.26 1.32 1.43 1.48 1.46 1.56 1.59 1.58 1.74 1.95 2.12 2.23 2.29 2.24 2.22 2.15 2.05
0.63 0.66 0.62 0.57 0.72 0.82 0.57 0.47 0.70 0.99 1.00 1.16 1.10 1.10 1.17 1.21 1.21 1.18 1.12 1.08 1.01 0.95 0.88 0.89 0.94 1.00 1.08 1.20 1.39 1.55 1.58 1.57 1.59 1.64 1.73 1.84 1.99 2.07 2.06 2.09 2.13 2.17 2.16 2.09
0.83 0.88 0.87 0.88 1.03 0.95 0.69 0.71 0.80 0.84 1.02 1.12 1.14 1.15 1.19 1.20 1.18 1.09 0.98 0.97 1.04 0.97 0.95 0.90 0.93 1.04 1.20 1.37 1.58 1.79 1.81 1.82 1.82 1.83 1.87 1.91 2.00 2.07 2.11 2.09 2.06 2.02 1.94 1.81
0.93 0.80 0.96 1.18 1.32 1.11 0.94 0.86 0.88 0.98 1.09 1.19 1.28 1.34 1.26 1.13 1.04 1.02 0.98 0.95 1.02 1.04 0.98 0.94 0.92 0.98 1.17 1.30 1.40 1.62 1.73 1.78 1.89 1.83 1.77 1.71 1.70 1.73 1.77 1.82 1.84 1.84 1.79 1.72
1.02 1.00 1.15 1.51 1.73 1.59 1.38 1.15 1.03 1.15 1.32 1.48 1.50 1.43 1.31 1.25 1.21 1.24 1.19 1.05 0.98 0.97 1.00 0.98 0.99 1.02 1.08 1.15 1.21 1.30 1.45 1.57 1.74 1.82 1.80 1.80 1.76 1.70 1.70 1.76 1.81 1.70 1.66 1.66
0.95 1.19 1.44 1.77 1.77 1.84 1.73 1.40 1.26 1.31 1.41 1.48 1.44 1.47 1.45 1.41 1.35 1.22 1.15 1.06 0.97 0.92 0.95 1.02 1.08 1.12 1.10 1.13 1.22 1.32 1.46 1.63 1.81 1.81 1.73 1.73 1.77 1.79 1.79 1.77 1.81 1.85 1.66 1.60